Simultaneous Nadir Overpasses (SNOs) Predictions

Prediction of SNOs between LANDSAT-8 and METOP-B Satellite Orbit:

Table of predicted SNOs for the next 14.0 days since TLE Epoch: 10/7/2023
Index Date (LANDSAT-8) Time (LANDSAT-8) Lat,Lon (LANDSAT-8) SZA (LANDSAT-8 ) Date (METOP-B) Time (METOP-B) Lat,Lon (METOP-B) SZA (METOP-B ) Distance(km) Time Diff (sec)
1 10/09/2023 09:04:11 -81.24, -94.12 90.02 10/09/2023 09:03:38 -81.24, -94.30 90.06 3.22 33
2 10/09/2023 09:53:37 81.25, 73.62 90.01 10/09/2023 09:54:17 81.25, 73.65 90.04 0.52 40
3 10/12/2023 04:38:26 -81.25, -27.62 88.93 10/12/2023 04:37:56 -81.24, -27.65 88.95 0.79 30
4 10/12/2023 05:27:52 81.25, 140.09 91.10 10/12/2023 05:28:35 81.26, 140.27 91.14 3.17 43
5 10/15/2023 00:12:41 -81.25, 38.88 87.86 10/15/2023 00:12:15 -81.25, 38.87 87.88 0.61 26
6 10/15/2023 01:02:07 81.25,-153.44 92.16 10/15/2023 01:02:55 81.25,-153.61 92.17 2.93 48
7 10/17/2023 19:46:56 -81.23, 105.00 86.86 10/17/2023 19:46:35 -81.23, 104.89 86.88 1.98 21
8 10/17/2023 20:36:21 81.25, -86.97 93.21 10/17/2023 20:37:13 81.26, -86.85 93.25 2.10 52
9 10/20/2023 15:21:08 -81.24, 171.50 85.83 10/20/2023 15:20:52 -81.24, 171.54 85.83 1.04 16



Historial Predications of SNOs between LANDSAT-8 and METOP-B
